• MPC Preparation (Info)

  • MPEC 1995-E09 : 1994 EV3

    The following Minor Planet Electronic Circular may be linked-to from your own Web pages, but must not otherwise be redistributed electronically.

    A form allowing access to any MPEC is at the bottom of this page.


    Read MPEC 1995-E08 Read MPEC 1995-E10


    M.P.E.C. 1995-E09                                Issued 1995 Mar. 6, 00:46 UT
    
         The Minor Planet Electronic Circulars contain information on unusual
             minor planets and routine data on comets.  They are published
       on behalf of Commission 20 of the International Astronomical Union by the
              Minor Planet Center, Smithsonian Astrophysical Observatory,
                              Cambridge, MA 02138, U.S.A.
    
              MARSDEN@CFA or WILLIAMS@CFA (.HARVARD.EDU, .SPAN or .BITNET)
    
                                       1994 EV3
    
                               Revision to MPEC 1994-H04
    
    Observations:
         J94E03V  A1995 02 25.5504  13 15 30.47 -07 59 10.6          23.5 R      568
         J94E03V  A1995 02 25.5595  13 15 30.44 -07 59 10.4                      568
         J94E03V  A1995 02 26.5354  13 15 27.59 -07 58 54.0                      568
         J94E03V  A1995 02 27.5361  13 15 24.62 -07 58 36.9                      568
         J94E03V  A1995 02 27.5469  13 15 24.59 -07 58 36.5                      568
    
    Observer details:
    568 Mauna Kea.  Observers D. Jewitt, J. Luu.  2.2-m University of Hawaii
        reflector + CCD.
    
    First and last observations above in comparison with prediction:
    Residuals in seconds of arc
    950225 568  0.3+  3.9-    950227 568  0.4+  4.6-    MPC 23653
    
    Orbital elements:
    1994 EV3
    Epoch 1995 Mar. 24.0 TT = JDT 2449800.5                 Marsden
    M 166.07431              (2000.0)            P               Q
    n   0.00348701     Peri.   13.05796     +0.84276226     -0.53819654
    a  43.0692572      Node    19.51254     +0.49119025     +0.76144365
    e   0.0379740      Incl.    1.68325     +0.22019062     +0.36131434
    P 282.65           H    7.0           G   0.15           U   5
    Residuals in seconds of arc
    940313 568  0.3-  0.7+    940413 568  0.0   0.1+    940607 568  0.8+  0.7+
    940313 568  0.0   0.4+    940413 568  0.3-  0.3+    940607 568  0.3+  0.8+
    940313 568  0.1-  0.4+    940415 568  0.1+  0.3-    940607 568  0.0   1.0+
    940314 568  0.4-  0.6-    940505 568  0.9-  0.3-    950225 568  0.1-  0.2+
    940314 568  0.4-  0.3-    940505 568  0.0   0.1+    950225 568  0.1-  0.3+
    940315 568  0.1+  0.8-    940507 568  0.0   0.3+    950226 568  0.2-  0.1-
    940315 568  0.7+  0.8-    940510 950  0.4+  0.7-    950227 568  0.0   0.7-
    940315 568  0.1-  0.9-    940607 568  0.3+  0.9+    950227 568  0.1+  0.4-
    
    Ephemeris:
    1994 EV3                 a,e,i = 43.07, 0.04, 2                  q = 41.434
    Date    TT    R. A. (2000) Decl.     Delta      r     Elong.  Phase     V
    1995 03 04    13 15.18   -07 57.2   43.867   44.660   142.7     0.8    23.6
    1995 03 14    13 14.59   -07 53.7   43.773   44.660   152.8     0.6    23.6
    1995 03 24    13 13.93   -07 49.8   43.706   44.660   162.9     0.4    23.5
    1995 04 03    13 13.23   -07 45.7   43.668   44.660   173.0     0.2    23.5
    1995 04 13    13 12.52   -07 41.4   43.659   44.661   177.0     0.1    23.5
    1995 04 23    13 11.81   -07 37.1   43.681   44.661   167.0     0.3    23.5
    1995 05 03    13 11.13   -07 33.1   43.731   44.661   157.1     0.5    23.6
    1995 05 13    13 10.51   -07 29.3   43.808   44.661   147.3     0.7    23.6
    1995 05 23    13 09.97   -07 26.1   43.910   44.661   137.5     0.9    23.6
    1995 06 02    13 09.53   -07 23.5   44.033   44.662   127.8     1.0    23.6
    1995 06 12    13 09.20   -07 21.5   44.175   44.662   118.1     1.1    23.6
    1995 06 22    13 08.99   -07 20.3   44.329   44.662   108.5     1.2    23.7
    1995 07 02    13 08.91   -07 19.9   44.493   44.662    98.9     1.3    23.7
    1995 07 12    13 08.98   -07 20.3   44.661   44.663    89.4     1.3    23.7
    1995 07 22    13 09.17   -07 21.6   44.829   44.663    79.9     1.3    23.7
    1995 08 01    13 09.50   -07 23.7   44.992   44.663    70.5     1.2    23.7
    1995 08 11    13 09.96   -07 26.5   45.146   44.663    61.0     1.1    23.7
    
    Brian G. Marsden                                              M.P.E.C. 1995-E09
    

    Read MPEC 1995-E08 Read MPEC 1995-E10


    MPEC number:

    Enter an MPEC number in one of the following forms:

    • 1997-B01 (the full form)
    • J97B01 (the packed version of the full form)
    • B01 (the abbreviated form)